TimePDT,TemperatureF,Dew PointF,Humidity,Sea Level PressureIn,VisibilityMPH,Wind Direction,Wind SpeedMPH,Gust SpeedMPH,PrecipitationIn,Events,Conditions,WindDirDegrees,DateUTC
12:21 AM,60.8,57.2,88,30.10,10.0,Calm,Calm,-,N/A,,Scattered Clouds,0,2012-10-15 07:21:00
12:56 AM,59.0,57.0,93,30.10,10.0,Calm,Calm,-,N/A,,Clear,0,2012-10-15 07:56:00
1:28 AM,59.0,57.2,94,30.10,10.0,Calm,Calm,-,N/A,,Scattered Clouds,0,2012-10-15 08:28:00
1:39 AM,59.0,57.2,94,30.10,10.0,Calm,Calm,-,N/A,,Mostly Cloudy,0,2012-10-15 08:39:00
1:56 AM,59.0,57.0,93,30.09,10.0,ESE,3.5,-,N/A,,Overcast,120,2012-10-15 08:56:00
2:56 AM,60.1,57.9,93,30.10,10.0,Calm,Calm,-,N/A,,Overcast,0,2012-10-15 09:56:00
3:56 AM,60.1,57.9,93,30.09,10.0,SSE,3.5,-,N/A,,Overcast,160,2012-10-15 10:56:00
4:20 AM,60.8,57.2,88,30.08,8.0,Calm,Calm,-,N/A,,Overcast,0,2012-10-15 11:20:00
4:56 AM,60.1,57.9,93,30.09,7.0,Calm,Calm,-,N/A,,Overcast,0,2012-10-15 11:56:00
5:54 AM,59.0,57.2,94,30.08,1.8,Calm,Calm,-,N/A,,Overcast,0,2012-10-15 12:54:00
5:55 AM,59.0,57.9,96,30.09,1.8,Calm,Calm,-,N/A,,Overcast,0,2012-10-15 12:55:00
6:42 AM,59.0,57.2,94,30.08,1.0,Calm,Calm,-,N/A,,Mist,0,2012-10-15 13:42:00
6:54 AM,59.0,57.2,94,30.09,2.0,Calm,Calm,-,N/A,,Overcast,0,2012-10-15 13:54:00
6:56 AM,59.0,57.9,96,30.10,3.0,Calm,Calm,-,N/A,,Overcast,0,2012-10-15 13:56:00
7:21 AM,59.0,57.2,94,30.08,2.5,Calm,Calm,-,N/A,,Overcast,0,2012-10-15 14:21:00
7:41 AM,59.0,57.2,94,30.09,1.2,Calm,Calm,-,N/A,,Overcast,0,2012-10-15 14:41:00
7:51 AM,59.0,57.2,94,30.09,0.8,Calm,Calm,-,N/A,,Overcast,0,2012-10-15 14:51:00
7:56 AM,59.0,57.9,96,30.10,0.8,Calm,Calm,-,N/A,,Overcast,0,2012-10-15 14:56:00
8:13 AM,59.0,57.2,94,30.09,1.5,Calm,Calm,-,N/A,,Overcast,0,2012-10-15 15:13:00
8:21 AM,59.0,57.2,94,30.09,3.0,Calm,Calm,-,N/A,,Overcast,0,2012-10-15 15:21:00
8:56 AM,59.0,57.9,96,30.10,5.0,Calm,Calm,-,N/A,,Overcast,0,2012-10-15 15:56:00
9:39 AM,59.0,57.2,94,30.10,2.0,Calm,Calm,-,N/A,,Overcast,0,2012-10-15 16:39:00
9:56 AM,59.0,57.9,96,30.11,4.0,Calm,Calm,-,N/A,,Overcast,0,2012-10-15 16:56:00
10:52 AM,62.6,57.2,82,30.10,10.0,North,4.6,-,N/A,,Overcast,350,2012-10-15 17:52:00
10:56 AM,62.1,57.9,86,30.11,10.0,North,3.5,-,N/A,,Overcast,350,2012-10-15 17:56:00
11:52 AM,64.4,57.2,77,30.09,10.0,North,6.9,-,N/A,,Scattered Clouds,360,2012-10-15 18:52:00
11:56 AM,64.9,57.9,78,30.10,10.0,North,5.8,-,N/A,,Scattered Clouds,350,2012-10-15 18:56:00
12:56 PM,66.0,59.0,78,30.07,10.0,NNW,5.8,-,N/A,,Scattered Clouds,340,2012-10-15 19:56:00
1:56 PM,72.0,59.0,64,30.03,10.0,North,6.9,-,N/A,,Clear,10,2012-10-15 20:56:00
2:56 PM,73.0,57.0,57,30.01,10.0,North,11.5,-,N/A,,Clear,350,2012-10-15 21:56:00
3:56 PM,73.0,57.9,59,30.00,10.0,North,10.4,-,N/A,,Clear,350,2012-10-15 22:56:00
4:56 PM,72.0,59.0,64,29.99,10.0,North,9.2,-,N/A,,Clear,350,2012-10-15 23:56:00
5:56 PM,70.0,59.0,68,29.98,10.0,North,11.5,-,N/A,,Clear,360,2012-10-16 00:56:00
6:56 PM,66.0,59.0,78,29.99,10.0,North,8.1,-,N/A,,Clear,360,2012-10-16 01:56:00
7:56 PM,64.9,60.1,84,30.00,10.0,Calm,Calm,-,N/A,,Clear,0,2012-10-16 02:56:00
8:56 PM,64.0,60.1,87,30.02,10.0,North,3.5,-,N/A,,Clear,360,2012-10-16 03:56:00
9:56 PM,64.9,60.1,84,30.02,10.0,Calm,Calm,-,N/A,,Clear,0,2012-10-16 04:56:00
10:56 PM,63.0,60.1,90,30.03,10.0,ENE,3.5,-,N/A,,Clear,70,2012-10-16 05:56:00
11:56 PM,64.0,60.1,87,30.02,10.0,Calm,Calm,-,N/A,,Clear,0,2012-10-16 06:56:00